Regional Weather Roundup
Issued by NWS

Home | Current Version | Previous Version | Text Only | Print | Product List | Glossary On
Versions: 1 2 3 4 5 6 7 8 9 10 11 12 13 14 15 16 17 18 19 20 21 22 23 24 25 26 27 28 29 30 31 32 33 34 35 36 37 38 39 40 41 42 43 44 45 46 47 48 49 50
359
ASUS44 KLIX 291810
RWRLA
LOUISIANA WEATHER ROUNDUP
NATIONAL WEATHER SERVICE NEW ORLEANS LA
1200 PM CST THU JAN 29 2015

NOTE: "FAIR" INDICATES FEW OR NO CLOUDS BELOW 12,000 FEET WITH NO
      SIGNIFICANT WEATHER AND/OR OBSTRUCTIONS TO VISIBILITY.
      SKY/WX - SKY CONDITION AND SIGNIFICANT WEATHER.
      TMP - AIR TEMPERATURE.    DP   - DEWPOINT TEMPERATURE.
      RH  - RELATIVE HUMIDITY.  PRES - PRESSURE.
      HX  - HEAT INDEX.         WCI  - WIND CHILL INDEX.

*  THESE STATIONS ARE NOT NWS OR FAA STATIONS AND ARE NOT UNDER
   NWS QUALITY CONTROL.

LAZ040-048-061>063-065-066-069-291900-
SOUTHEAST LOUISIANA

CITY           SKY/WX    TMP DP  RH WIND       PRES   REMARKS
N.O. AUDUBON     N/A     76  61  60 MISG        N/A
6HR MIN TEMP:  50; 6HR MAX TEMP:  76;

N.O. INTL ARPT MOSUNNY   71  57  61 SW8       30.26F
6HR MIN TEMP:  47; 6HR MAX TEMP:  72;

N.O. LAKEFRONT MOSUNNY   67  54  63 N6        30.27F
6HR MIN TEMP:  50; 6HR MAX TEMP:  72;

N.O. DOWNTOWN* NOT AVBL
SLIDELL        PTSUNNY   70  53  54 S9        30.26F
6HR MIN TEMP:  36; 6HR MAX TEMP:  71;

BATON ROUGE    SUNNY     72  57  59 SW10      30.24F
6HR MIN TEMP:  41; 6HR MAX TEMP:  73;

BOOTHVILLE     SUNNY     69  56  62 S12       30.27F
6HR MIN TEMP:  50; 6HR MAX TEMP:  69;

BELLE CHASSE   PTSUNNY   73  56  54 SW8       30.26F
6HR MIN TEMP:  41; 6HR MAX TEMP:  74;

BOGALUSA*        N/A     73  54  51 SW10      30.26F
6HR MIN TEMP:  35; 6HR MAX TEMP:  73;

GALLIANO*        N/A     76  58  54 MISG      30.27S
6HR MIN TEMP:  38; 6HR MAX TEMP:  76;

NEW ROADS*     FAIR      72  52  49 SW14      30.24F
6HR MIN TEMP:  42; 6HR MAX TEMP:  72;

GONZALES*      FAIR      72  59  64 SW6       30.25F
6HR MIN TEMP:  46; 6HR MAX TEMP:  72;

HAMMOND*       MOSUNNY   73  55  53 W10       30.26F
HOUMA*         PTSUNNY   72  61  68 S7        30.26F
PORT FOURCHON* CLEAR     70  59  68 S10       30.29F

$$

LAZ041-044-053-054-291900-
SOUTHWEST LOUISIANA

CITY           SKY/WX    TMP DP  RH WIND       PRES   REMARKS
LAKE CHARLES   SUNNY     70  60  70 SW9       30.25F
6HR MIN TEMP:  49; 6HR MAX TEMP:  71;

LAFAYETTE      SUNNY     71  57  61 SW10      30.25F
6HR MIN TEMP:  48; 6HR MAX TEMP:  72;

PATTERSON      MOSUNNY   72  61  68 W10       30.28S
SALT POINT       N/A     64  58  80 W3        30.26S
6HR MIN TEMP:  55; 6HR MAX TEMP:  68;

NEW IBERIA     SUNNY     71  61  70 SW7       30.26F
6HR MIN TEMP:  46; 6HR MAX TEMP:  71;

CHENAULT AIRPK NOT AVBL

$$

LAZ027-028-291900-
CENTRAL LOUISIANA

CITY           SKY/WX    TMP DP  RH WIND       PRES   REMARKS
FORT POLK      MOSUNNY   67  59  76 SW14      30.23F
6HR MIN TEMP:  54; 6HR MAX TEMP:  67;

ALEXANDRIA INT MOSUNNY   67  58  72 S9        30.21F
6HR MIN TEMP:  54; 6HR MAX TEMP:  67;

ALEXANDRIA     SUNNY     71  55  56 W15       30.22F
6HR MIN TEMP:  56; 6HR MAX TEMP:  71;


$$

LAZ001-002-291900-
NORTHWEST LOUISIANA

CITY           SKY/WX    TMP DP  RH WIND       PRES   REMARKS
SHREVEPORT     PTSUNNY   70  52  52 W10       30.20F
6HR MIN TEMP:  55; 6HR MAX TEMP:  71;

BARKSDALE AFB  SUNNY     69  53  56 W10       30.21S
6HR MIN TEMP:  47; 6HR MAX TEMP:  69;

DTN SHREVEPORT SUNNY     69  51  52 W14       30.21S
6HR MIN TEMP:  53; 6HR MAX TEMP:  69;


$$

LAZ014-016-291900-
NORTHEAST LOUISIANA

CITY           SKY/WX    TMP DP  RH WIND       PRES   REMARKS
MONROE         SUNNY     70  53  54 W13       30.18F
6HR MIN TEMP:  49; 6HR MAX TEMP:  70;

TALLULAH       SUNNY     70  50  49 SW13G23   30.19F
6HR MIN TEMP:  50; 6HR MAX TEMP:  70;


$$




USA.gov is the U.S. government's official web portal to all federal, state and local government web resources and services.